Theta_e
322 322 326 326 327 327 328 329 330 329 328 326 326 326 327 325 321 311 302 312 316 328 321 310 309 307 309 308 309 306 297 295 297 295 298 298 299 300 302 308 307 311 313 316 326
320 322 321 326 326 326 327 329 329 328 327 324 324 326 327 323 315 310 318 325 327 329 308 306 305 308 303 303 305 302 298 297 300 299 297 298 298 299 300 304 305 311 317 322 327
318 321 321 326 325 326 327 327 328 328 327 325 324 324 325 321 309 310 326 327 329 321 307 309 309 308 303 303 303 302 298 300 300 300 299 298 298 299 299 299 304 307 313 320 324
317 321 320 325 325 326 326 326 327 327 328 327 327 326 324 316 299 315 327 328 327 310 305 307 309 307 300 300 302 299 301 300 304 300 298 297 299 297 298 302 302 308 318 321 322
317 320 321 323 324 325 325 326 327 327 327 327 327 325 319 309 308 313 328 327 317 307 304 302 306 305 304 302 300 299 299 299 300 298 298 298 297 297 297 299 306 313 319 321 322
314 319 321 322 322 324 325 325 326 326 326 326 326 323 312 304 314 311 320 317 312 305 302 303 302 304 302 300 301 301 298 298 300 298 298 297 295 296 299 301 310 314 316 320 322
314 318 321 321 322 323 324 325 325 326 325 326 324 315 309 307 309 309 319 314 313 305 301 304 304 303 300 298 300 298 297 298 302 298 297 297 295 294 297 303 308 313 313 316 320
318 318 320 321 321 322 323 324 325 324 324 324 323 310 304 311 310 312 316 313 313 313 308 308 307 304 303 302 301 296 298 293 297 297 297 298 295 298 298 300 303 310 311 313 315
318 319 320 320 320 321 322 323 323 323 323 321 310 307 302 309 305 310 314 311 310 308 309 310 304 300 300 297 293 296 289 292 294 295 294 294 292 297 296 297 297 304 309 311 313
314 318 319 319 319 319 321 323 322 321 317 314 310 303 298 297 303 306 310 313 306 304 304 304 299 293 295 297 290 290 289 291 291 295 292 291 290 294 295 294 296 297 306 309 312
312 318 318 319 319 320 320 318 309 306 306 302 301 296 297 300 306 303 310 308 306 304 295 297 293 290 293 297 293 293 294 293 291 298 293 292 294 297 297 293 293 294 298 307 310
310 311 318 318 319 320 319 309 309 308 298 303 303 298 298 302 299 302 310 302 301 295 298 294 290 293 292 294 293 293 292 291 294 292 291 291 290 293 295 295 295 295 294 299 306
309 310 317 318 318 317 314 310 315 310 297 299 301 296 298 300 297 298 302 301 298 293 295 290 292 295 293 290 289 288 287 286 289 288 289 286 287 289 294 293 293 293 295 295 299
307 307 309 317 313 314 309 313 314 308 290 290 296 298 297 298 294 300 301 300 295 294 295 293 296 294 292 291 290 287 291 290 288 287 281 285 280 286 291 295 291 294 293 294 295
307 306 307 315 313 309 310 313 309 306 280 292 294 301 298 296 296 296 299 296 291 290 293 290 290 292 291 291 293 289 291 290 289 286 283 282 279 282 286 290 295 295 294 295 295
307 305 306 308 313 313 314 310 307 288 278 286 292 291 291 290 291 294 295 295 295 291 290 288 290 295 293 293 293 291 290 288 285 286 280 283 281 281 285 288 289 292 294 296 296
306 306 305 307 306 313 308 303 286 282 287 283 286 289 291 286 288 294 290 288 286 282 282 286 284 287 291 288 291 291 289 281 279 279 278 279 280 288 287 288 289 292 293 294 296
304 306 306 306 308 310 305 295 282 283 284 288 288 289 285 288 286 288 288 284 286 285 283 282 280 285 287 287 286 289 289 281 275 273 277 279 278 285 289 292 290 289 289 290 291
304 302 302 304 308 309 298 286 286 285 285 285 288 284 281 285 285 286 287 287 287 286 282 281 281 285 286 288 291 284 286 288 281 271 274 278 281 286 287 288 287 288 289 290 291
297 299 298 306 307 302 294 289 284 287 288 290 283 285 279 284 282 284 286 290 288 288 287 284 280 284 285 288 286 287 290 282 281 273 270 276 277 282 283 286 288 288 289 291 292
296 292 301 306 304 296 287 289 286 288 291 286 282 282 284 283 283 284 285 286 289 286 288 285 283 281 285 283 283 283 284 283 284 280 275 272 278 283 286 288 289 290 288 290 292
292 286 298 304 286 289 289 289 290 288 288 287 286 284 284 285 281 285 283 288 292 289 286 285 283 278 281 284 285 285 284 286 280 277 277 277 281 286 286 286 286 287 288 289 292
286 286 297 300 283 284 290 290 289 287 286 286 284 285 286 285 280 282 284 288 292 290 287 286 281 273 279 282 283 282 283 287 285 281 277 275 281 289 292 292 288 288 290 290 291
286 284 289 293 289 287 287 287 286 289 286 287 285 287 286 284 284 282 283 286 290 291 294 293 283 281 278 280 282 281 282 282 284 278 282 280 284 288 286 286 287 288 288 290 291
286 283 285 283 285 288 289 287 285 284 287 287 284 286 285 281 283 281 283 284 287 292 290 288 280 280 281 282 283 283 283 282 282 285 282 285 283 287 287 289 289 288 288 290 291
284 283 285 283 285 285 288 285 286 286 286 285 285 286 284 282 285 280 285 284 284 287 287 286 279 282 278 282 282 279 284 285 285 286 284 285 283 290 286 286 288 290 289 289 291
289 288 284 284 285 285 285 286 287 289 289 288 286 286 283 285 288 289 290 291 289 288 287 284 278 274 277 281 281 280 283 284 284 286 286 283 289 288 286 288 290 290 290 291 292
Wind_Speed
26 25 30 31 28 27 24 22 25 24 21 23 19 11 10 10 6 4 5 6 5 9 7 5 3 5 5 3 3 3 4 3 4 5 1 1 2 3 1 6 1 3 3 1 14
26 30 28 31 30 28 26 23 23 25 22 24 22 14 7 9 5 3 5 4 6 10 6 8 4 5 4 2 2 4 4 8 4 3 2 1 3 5 3 3 3 2 2 6 17
26 32 26 36 31 29 27 27 28 26 24 23 24 19 14 7 6 7 8 5 7 8 5 3 7 4 4 2 2 4 6 5 4 4 1 1 2 3 5 3 8 9 7 15 15
27 32 34 33 33 30 28 27 25 26 26 26 24 23 20 7 13 5 16 11 4 5 6 7 4 6 5 5 3 4 5 7 4 4 3 3 0 1 6 6 2 7 12 16 17
28 34 32 32 30 31 28 27 26 27 25 24 23 25 10 8 7 1 7 14 6 4 9 7 6 5 7 6 4 2 3 6 7 4 4 3 3 3 7 8 3 8 13 18 17
28 34 35 34 30 30 28 27 27 27 25 25 25 23 6 14 3 4 10 8 5 5 6 7 9 6 6 5 6 4 5 2 4 3 0 1 1 3 6 4 5 8 13 13 18
36 27 34 34 30 30 28 27 29 28 26 26 27 11 6 10 5 5 11 8 5 4 7 1 6 6 7 5 2 4 4 3 3 1 4 5 3 5 4 1 4 8 7 8 11
29 29 30 30 29 30 29 28 29 27 27 27 24 6 6 3 5 7 8 4 3 3 5 5 3 6 4 4 5 4 1 2 1 6 2 7 12 8 5 5 9 8 8 9 10
19 29 33 30 27 27 29 31 30 29 27 24 10 6 5 7 6 5 7 16 7 4 5 3 6 4 4 8 3 3 3 6 3 6 3 4 3 6 4 6 9 8 8 9 9
8 32 34 34 28 31 31 31 30 30 21 11 4 6 6 9 7 8 3 16 7 8 5 4 4 4 1 9 9 6 4 0 4 2 1 2 6 10 4 6 10 7 7 10 12
17 29 34 32 32 31 30 20 16 11 18 8 16 6 11 7 5 4 6 10 7 5 6 1 5 14 15 8 5 6 3 6 0 4 3 6 12 16 11 5 8 10 9 12 14
13 15 28 31 30 34 26 19 20 11 14 1 17 7 4 6 9 7 12 9 11 12 8 4 10 5 8 9 6 7 4 2 3 3 4 6 10 13 10 9 11 13 10 13 8
7 14 15 26 30 28 25 14 19 15 8 9 5 7 8 5 7 13 11 7 17 16 16 7 5 7 6 4 9 4 7 5 4 3 2 4 11 10 10 9 9 8 9 7 14
2 8 12 26 24 23 9 20 19 3 6 7 6 6 5 8 6 3 5 8 3 20 12 6 3 14 9 8 6 6 8 6 5 2 4 1 9 7 8 18 10 11 9 12 12
5 7 11 14 10 18 14 19 7 4 9 13 5 4 5 10 16 8 2 4 12 10 9 10 11 14 15 8 8 5 7 8 5 4 4 4 3 8 5 14 18 16 12 15 14
1 0 6 9 3 15 22 17 8 7 6 7 6 10 16 3 2 8 5 6 4 7 4 6 1 12 8 7 13 9 7 9 5 4 6 4 6 6 7 9 6 7 14 16 15
3 8 5 7 1 24 21 13 8 7 8 8 7 13 21 7 6 21 14 9 9 9 7 3 3 2 6 8 4 7 13 2 3 4 10 3 6 21 6 5 6 9 10 11 12
6 10 7 5 7 22 12 11 8 10 9 4 9 17 12 15 3 7 12 9 7 5 9 11 7 9 5 8 10 10 10 6 7 6 4 1 11 11 8 10 7 8 9 7 9
2 2 3 1 1 10 14 18 9 11 12 13 18 19 4 7 11 10 19 21 11 8 8 6 5 3 4 6 12 6 11 7 5 2 3 6 8 11 9 11 7 10 7 12 11
1 3 3 6 3 2 12 17 6 9 16 23 10 11 11 21 8 12 21 18 10 9 3 6 5 1 1 6 2 13 12 6 3 5 5 6 6 11 3 9 10 9 11 14 9
1 4 2 5 4 4 17 11 8 7 20 10 8 9 13 19 9 17 22 2 11 9 5 7 5 1 7 10 10 5 9 5 6 7 8 3 8 10 10 10 9 10 7 8 8
0 4 4 8 2 4 13 11 8 12 2 7 7 6 13 20 5 17 15 12 16 18 17 6 6 4 8 3 4 7 10 17 6 7 3 3 13 7 8 7 7 9 9 8 7
1 2 3 7 3 4 3 4 5 10 5 5 5 4 7 14 5 4 11 8 19 20 21 9 3 4 5 4 1 8 6 13 8 4 8 7 13 6 16 20 8 8 9 7 7
1 2 3 2 2 5 7 9 6 4 4 6 8 10 11 9 2 12 8 5 12 13 10 14 4 11 15 3 9 9 7 6 10 5 17 8 20 25 5 7 6 7 9 8 7
2 1 2 1 4 6 5 7 8 8 3 7 4 13 13 7 14 6 6 4 5 6 6 8 11 2 2 5 6 7 11 12 13 23 13 24 19 30 10 11 10 6 4 5 8
3 2 2 1 2 8 7 9 11 5 9 15 13 15 7 10 13 9 11 7 8 5 13 4 8 7 2 3 5 1 10 20 22 21 13 21 14 14 4 6 8 11 7 9 10
2 2 2 2 2 3 5 8 14 5 5 3 12 10 6 6 9 10 5 11 13 16 16 12 8 5 13 6 6 6 22 13 9 12 17 18 36 7 7 9 11 11 8 13 15
Wind_Direction
242 238 234 203 189 186 191 195 187 171 172 158 161 158 162 111 87 81 205 209 179 164 142 125 55 118 72 70 80 164 86 187 211 161 313 51 189 2 97 113 239 159 172 346 130
252 233 218 200 190 185 189 188 188 168 170 162 162 171 148 113 70 336 256 306 205 167 121 134 133 109 76 98 52 115 145 209 166 170 177 324 180 173 141 110 233 164 36 130 142
273 230 214 208 191 185 184 187 191 172 169 168 163 167 147 116 64 240 194 226 187 170 139 102 119 97 85 101 174 185 179 191 198 143 21 36 104 175 129 218 214 195 160 165 165
283 225 215 214 188 183 184 186 189 173 171 169 168 162 156 147 197 196 168 181 174 146 108 109 91 108 125 164 183 160 184 159 143 150 112 332 29 256 194 230 304 188 154 168 178
288 215 210 207 185 180 183 184 185 176 165 158 153 143 137 185 234 54 171 158 149 148 146 135 134 130 158 167 141 242 196 184 144 145 108 136 282 243 256 244 5 136 153 179 187
292 214 201 195 189 179 179 184 188 167 156 155 150 144 137 187 129 105 130 128 153 133 143 149 171 167 114 170 171 212 173 179 137 127 86 49 341 75 285 155 142 164 179 185 192
272 199 182 182 184 177 178 184 179 160 153 151 150 139 165 175 115 152 139 148 181 146 127 163 160 138 134 128 163 131 157 24 296 119 175 153 321 220 282 326 202 201 193 193 197
191 191 174 177 184 177 177 175 160 155 150 147 158 109 161 132 130 121 120 121 130 62 104 134 114 107 108 98 39 109 71 159 208 156 238 136 259 259 223 177 238 227 205 196 201
186 182 172 170 182 175 174 152 152 150 145 140 139 139 153 144 161 164 154 162 126 74 64 114 83 110 85 112 54 350 172 203 286 215 135 178 265 238 158 207 244 227 231 214 208
337 180 174 165 176 180 166 155 147 139 135 104 101 99 174 194 145 139 131 141 130 113 62 58 85 111 100 162 194 186 191 313 205 266 186 119 269 275 236 197 231 259 228 228 223
359 176 168 170 172 176 155 153 162 161 156 157 175 122 129 135 105 92 143 120 115 108 136 30 125 198 189 200 111 141 153 200 274 246 232 229 246 247 244 224 247 237 231 227 229
14 351 161 166 170 175 164 186 164 141 143 63 142 78 133 143 115 147 155 139 152 169 115 97 210 165 142 158 150 139 131 202 293 270 183 293 260 261 242 233 226 232 221 232 220
9 5 180 166 173 168 182 135 139 133 113 147 124 126 152 106 119 164 148 141 166 172 185 159 155 139 135 146 157 155 147 160 209 295 221 287 276 241 241 230 235 237 226 232 228
58 351 334 166 174 168 166 136 140 126 106 161 174 160 125 131 76 129 155 127 139 189 154 212 192 168 172 184 156 184 165 146 117 49 260 109 284 266 248 237 221 236 219 229 229
132 332 339 221 166 175 144 142 147 106 162 151 137 129 147 155 132 215 160 76 149 146 141 192 158 176 204 162 163 202 148 174 145 82 360 207 285 270 272 245 235 223 225 230 224
228 289 338 291 170 144 135 126 89 153 178 157 143 157 144 120 112 130 131 58 120 108 62 168 161 179 184 158 170 133 75 37 43 81 267 205 203 241 218 226 236 224 228 224 227
325 125 271 307 308 142 133 141 133 191 153 145 164 169 155 135 106 161 170 157 153 131 167 143 171 178 129 111 114 127 150 145 159 203 238 292 171 249 256 268 241 238 246 229 227
304 131 258 275 338 151 156 161 170 137 151 165 142 141 155 139 95 141 145 174 233 125 135 161 209 164 183 158 154 163 171 164 171 200 245 138 223 248 235 254 244 242 251 287 267
111 166 231 299 198 167 161 181 193 162 146 135 133 151 125 163 131 146 190 191 185 179 128 131 211 35 151 137 135 180 203 157 86 80 52 217 287 295 256 279 276 250 263 261 249
118 148 244 149 201 215 184 184 120 127 124 140 143 173 160 174 128 175 177 198 187 176 111 189 122 11 90 94 36 182 147 159 199 204 246 247 258 235 319 261 271 283 247 244 266
199 117 151 147 33 232 190 173 110 152 137 136 145 151 169 180 160 179 184 214 158 148 111 157 103 346 140 207 162 135 185 192 159 179 186 250 250 195 221 225 236 262 295 288 258
326 140 343 128 174 253 176 145 119 160 114 119 108 112 162 163 116 184 189 184 171 156 183 187 115 149 206 258 190 185 189 199 181 221 295 125 270 178 230 240 234 275 279 269 253
53 23 14 151 198 172 139 110 120 151 140 117 116 121 128 160 148 176 172 222 166 166 173 174 180 77 8 344 209 213 196 202 214 62 200 156 258 152 239 261 234 251 270 286 263
101 152 72 223 168 155 155 166 111 121 98 92 109 111 115 153 283 178 151 180 176 173 140 160 157 189 201 163 130 186 171 183 191 206 235 226 255 254 283 269 269 245 257 268 243
16 84 58 183 164 169 140 141 132 143 151 127 80 159 154 141 189 162 132 100 76 180 142 155 218 156 16 143 143 171 190 181 192 221 201 239 228 261 212 258 277 262 251 243 245
124 127 25 36 74 148 178 175 178 133 143 189 152 167 168 154 180 140 132 141 169 157 164 177 240 154 228 118 139 181 212 201 211 221 223 241 266 255 238 219 257 252 251 257 243
99 65 95 356 72 139 177 156 202 141 36 133 130 140 204 160 123 145 141 148 154 168 182 171 132 110 237 148 89 308 223 205 204 205 207 229 244 159 234 223 238 244 224 248 249